Location: Newark
(33.4453°N, 112.0669°W)
Time: 06:36:36
(UTC+00:00)

LightSail 2 - Pass Details

Date: 28 January 2020
Orbit: 697 x 724 km, 24.0° (Epoch: 27 February)

Event Time Altitude Azimuth Distance (km) Brightness Sun altitude
Rises 03:03:08 0° 251° (WSW) 3,075 9.6 -26.8°
Reaches altitude 10° 03:07:40 10° 214° (SW) 2,163 8.1 -27.8°
Maximum altitude 03:08:50 11° 201° (SSW) 2,114 7.8 -28.0°
Drops below altitude 10° 03:10:01 10° 187° (S) 2,166 7.7 -28.2°
Enters shadow 03:10:47 - 179° (S) 2,252 7.7 -28.4°
